DW5679 Weather Reports


Display with metric or nautical units.
time (UTC)temp
F
wind
direction
speed
MPH
gust
MPH
rain 1hr
in
rain 24hr
in
rain mn
in
humidity
%
barometer
mb
20260902200036 93 104 0.0 0.0 0.00 0.00 0.00 55 1015.6
20260902200004 92 74 0.0 0.0 0.00 0.00 0.00 56 1015.3
20260902194548 93 107 0.0 0.0 0.00 0.00 0.00 53 1015.6
20260902194506 92 77 0.0 0.0 0.00 0.00 0.00 54 1015.4
20260902193059 92 141 0.0 3.0 0.00 0.00 0.00 58 1015.5
20260902193028 92 127 0.0 3.0 0.00 0.00 0.00 56 1015.9
20260902191558 93 70 0.0 1.0 0.00 0.00 0.00 55 1015.7
20260902191536 93 100 0.0 1.0 0.00 0.00 0.00 55 1016.2
20260902190057 93 152 0.0 4.0 0.00 0.00 0.00 54 1016.0
20260902190032 93 97 0.0 4.0 0.00 0.00 0.00 54 1016.3
20260902184555 93 70 0.0 2.0 0.00 0.00 0.00 56 1016.4
20260902184534 93 85 0.0 2.0 0.00 0.00 0.00 55 1016.6
20260902183056 92 36 0.0 1.0 0.00 0.00 0.00 56 1016.6
20260902183032 93 66 0.0 1.0 0.00 0.00 0.00 55 1016.7
20260902181608 92 89 0.0 1.0 0.00 0.00 0.00 56 1016.8
20260902181530 93 119 0.0 1.0 0.00 0.00 0.00 54 1016.9
20260902180057 92 194 0.0 3.0 0.00 0.00 0.00 54 1016.9
20260902180008 92 224 1.0 3.0 0.00 0.00 0.00 53 1017.1
20260902174545 91 20 0.0 2.0 0.00 0.00 0.00 58 1017.2
20260902174505 91 55 0.0 2.0 0.00 0.00 0.00 58 1017.5
20260902173043 90 3 0.0 1.0 0.00 0.00 0.00 57 1017.4
20260902173005 90 33 0.0 1.0 0.00 0.00 0.00 57 1017.7
20260902171544 89 24 0.0 2.0 0.00 0.00 0.00 61 1017.5
20260902171512 90 57 0.0 2.0 0.00 0.00 0.00 61 1017.9
20260902170038 88 47 0.0 4.0 0.00 0.00 0.00 62 1017.7
20260902170013 89 76 0.0 4.0 0.00 0.00 0.00 61 1018.1
20260902164545 88 70 0.0 1.0 0.00 0.00 0.00 63 1017.8
20260902164518 88 100 0.0 1.0 0.00 0.00 0.00 63 1018.3
20260902163031 87 105 0.0 2.0 0.00 0.00 0.00 67 1017.9
20260902163009 87 139 0.0 2.0 0.00 0.00 0.00 66 1018.3
20260902161622 86 92 0.0 1.0 0.00 0.00 0.00 68 1018.0
20260902161506 86 122 0.0 1.0 0.00 0.00 0.00 68 1018.5
20260902160016 85 122 0.0 1.0 0.00 0.00 0.00 69 1018.7
20260902154615 84 44 0.0 1.0 0.00 0.00 0.00 71 1018.2
20260902154525 84 74 0.0 1.0 0.00 0.00 0.00 70 1018.5
20260902153026 83 60 0.0 0.0 0.00 0.00 0.00 72 1018.1
20260902153018 84 89 0.0 0.0 0.00 0.00 0.00 72 1018.5
20260902151629 83 60 0.0 0.0 0.00 0.00 0.00 73 1018.0
20260902151520 83 90 0.0 0.0 0.00 0.00 0.00 72 1018.4
20260902150026 82 70 0.0 0.0 0.00 0.00 0.00 71 1018.1
20260902150010 83 100 0.0 0.0 0.00 0.00 0.00 71 1018.5
20260902144550 81 54 0.0 0.0 0.00 0.00 0.00 75 1018.1
20260902144507 81 84 0.0 0.0 0.00 0.00 0.00 75 1018.6
20260902143046 80 51 0.0 0.0 0.00 0.00 0.00 77 1017.9
20260902143018 80 82 0.0 0.0 0.00 0.00 0.00 77 1018.4
20260902141542 79 51 0.0 0.0 0.00 0.00 0.00 82 1017.9
20260902141525 79 81 0.0 0.0 0.00 0.00 0.00 83 1018.4
20260902140041 78 51 0.0 0.0 0.00 0.00 0.00 86 1018.1
20260902140020 78 81 0.0 0.0 0.00 0.00 0.00 86 1018.5
20260902134540 77 52 0.0 0.0 0.00 0.00 0.00 88 1018.1
20260902134516 77 82 0.0 0.0 0.00 0.00 0.00 87 1018.5
20260902133045 76 51 0.0 0.0 0.00 0.00 0.00 90 1018.0
20260902133015 76 81 0.0 0.0 0.00 0.00 0.00 89 1018.5
20260902131544 75 52 0.0 0.0 0.00 0.00 0.00 90 1018.1
20260902131511 75 81 0.0 0.0 0.00 0.00 0.00 89 1018.4
20260902130036 74 52 0.0 0.0 0.00 0.00 0.00 91 1018.0
20260902130030 74 82 0.0 0.0 0.00 0.00 0.00 91 1018.4
20260902124535 73 52 0.0 0.0 0.00 0.00 0.00 90 1017.8
20260902124526 73 82 0.0 0.0 0.00 0.00 0.00 90 1018.2
20260902123035 73 52 0.0 0.0 0.00 0.00 0.00 91 1017.6
20260902123029 73 82 0.0 0.0 0.00 0.00 0.00 90 1018.2
20260902121532 73 52 0.0 0.0 0.00 0.00 0.00 90 1017.6
20260902121520 73 81 0.0 0.0 0.00 0.00 0.00 90 1018.1
20260902120031 73 52 0.0 0.0 0.00 0.00 0.00 90 1017.3
20260902120019 73 81 0.0 0.0 0.00 0.00 0.00 89 1017.9
20260902114529 73 51 0.0 0.0 0.00 0.00 0.00 90 1017.3
20260902114518 73 81 0.0 0.0 0.00 0.00 0.00 89 1017.7
20260902113028 73 52 0.0 0.0 0.00 0.00 0.00 89 1017.2
20260902113026 73 81 0.0 0.0 0.00 0.00 0.00 89 1017.5
20260902111526 73 52 0.0 0.0 0.00 0.00 0.00 89 1017.2
20260902110040 74 81 0.0 0.0 0.00 0.00 0.00 88 1017.4
20260902110023 73 51 0.0 0.0 0.00 0.00 0.00 89 1017.0
20260902104621 74 52 0.0 0.0 0.00 0.00 0.00 88 1016.9
20260902104534 74 82 0.0 0.0 0.00 0.00 0.00 88 1017.3
20260902103045 74 51 0.0 0.0 0.00 0.00 0.00 89 1016.9
20260902103032 74 81 0.0 0.0 0.00 0.00 0.00 88 1017.4
20260902101524 74 52 0.0 0.0 0.00 0.00 0.00 86 1016.8
20260902101518 74 81 0.0 0.0 0.00 0.00 0.00 86 1017.3
20260902100027 75 81 0.0 0.0 0.00 0.00 0.00 86 1017.2
20260902100010 74 52 0.0 0.0 0.00 0.00 0.00 86 1016.7
20260902094527 75 81 0.0 0.0 0.00 0.00 0.00 86 1017.2
20260902094509 74 51 0.0 0.0 0.00 0.00 0.00 87 1016.8
20260902093036 75 82 0.0 0.0 0.00 0.00 0.00 87 1017.0
20260902093008 75 52 0.0 0.0 0.00 0.00 0.00 88 1016.6
20260902091528 75 82 0.0 0.0 0.00 0.00 0.00 87 1017.0
20260902091507 75 52 0.0 0.0 0.00 0.00 0.00 88 1016.6
20260902090006 75 52 0.0 0.0 0.00 0.00 0.00 88 1016.7
20260902084505 75 51 0.0 0.0 0.00 0.00 0.00 87 1016.6
20260902083022 76 54 0.0 0.0 0.00 0.00 0.00 86 1016.9
20260902083002 75 24 0.0 0.0 0.00 0.00 0.00 86 1016.6
20260902081511 76 55 0.0 0.0 0.00 0.00 0.00 84 1016.8
20260902081501 76 24 0.0 0.0 0.00 0.00 0.00 84 1016.5
20260902080059 76 24 0.0 0.0 0.00 0.00 0.00 84 1016.5
20260902080007 76 54 0.0 0.0 0.00 0.00 0.00 83 1016.7
20260902074600 76 25 0.0 0.0 0.00 0.00 0.00 84 1016.6
20260902074505 77 54 0.0 0.0 0.00 0.00 0.00 83 1016.7
20260902073058 77 24 0.0 0.0 0.00 0.00 0.00 83 1016.5
20260902073008 77 54 0.0 0.0 0.00 0.00 0.00 82 1016.7
20260902071603 77 24 0.0 0.0 0.00 0.00 0.00 83 1016.5
20260902071503 77 54 0.0 0.0 0.00 0.00 0.00 83 1016.9
20260902070055 77 24 0.0 0.0 0.00 0.00 0.00 83 1016.6
20260902070016 77 54 0.0 0.0 0.00 0.00 0.00 82 1016.8
20260902064614 77 25 0.0 0.0 0.00 0.00 0.00 83 1016.7
20260902064517 77 54 0.0 0.0 0.00 0.00 0.00 83 1016.9
20260902063056 77 25 0.0 0.0 0.00 0.00 0.00 84 1016.7
20260902063014 77 55 0.0 0.0 0.00 0.00 0.00 83 1016.8
20260902061553 77 25 0.0 0.0 0.00 0.00 0.00 82 1016.5
20260902061508 78 54 0.0 0.0 0.00 0.00 0.00 82 1016.8
20260902060059 77 24 0.0 0.0 0.00 0.00 0.00 81 1016.6
20260902060008 78 55 0.0 0.0 0.00 0.00 0.00 80 1016.8
20260902054548 78 24 0.0 0.0 0.00 0.00 0.00 81 1016.5
20260902054510 78 55 0.0 0.0 0.00 0.00 0.00 81 1016.7
20260902053046 78 24 0.0 0.0 0.00 0.00 0.00 79 1016.5
20260902053022 78 54 0.0 0.0 0.00 0.00 0.00 79 1016.6
20260902051545 78 25 0.0 0.0 0.00 0.00 0.00 81 1016.3
20260902051522 79 54 0.0 0.0 0.00 0.00 0.00 80 1016.5
20260902050015 79 41 0.0 0.0 0.00 0.00 0.00 78 1016.4
20260902044601 79 11 0.0 0.0 0.00 0.00 0.00 77 1016.1
20260902044508 79 40 0.0 0.0 0.00 0.00 0.00 77 1016.4
20260902043039 79 10 0.0 0.0 0.00 0.00 0.00 78 1016.0
20260902043009 80 41 0.0 0.0 0.00 0.00 0.00 78 1016.4
20260902041540 79 309 0.0 0.0 0.00 0.00 0.00 78 1016.1
20260902041505 80 339 0.0 0.0 0.00 0.00 0.00 77 1016.3
20260902040041 80 309 0.0 0.0 0.00 0.00 0.00 75 1016.0
20260902040024 80 339 0.0 0.0 0.00 0.00 0.00 74 1016.3
20260902034541 80 309 0.0 0.0 0.00 0.00 0.00 73 1016.0
20260902034520 80 339 0.0 0.0 0.00 0.00 0.00 73 1016.3
20260902033037 80 309 0.0 0.0 0.00 0.00 0.00 72 1016.1
20260902033016 81 339 0.0 0.0 0.00 0.00 0.00 71 1016.3
20260902031540 81 309 0.0 0.0 0.00 0.00 0.00 70 1016.0
20260902031511 81 339 0.0 0.0 0.00 0.00 0.00 70 1016.3
20260902030036 81 309 0.0 0.0 0.00 0.00 0.00 69 1015.7
20260902030008 82 339 0.0 0.0 0.00 0.00 0.00 68 1016.1
20260902024540 82 309 0.0 0.0 0.00 0.00 0.00 68 1015.6
20260902024505 82 339 0.0 0.0 0.00 0.00 0.00 68 1015.9
20260902023038 82 309 0.0 0.0 0.00 0.00 0.00 67 1015.6
20260902021547 83 309 0.0 0.0 0.00 0.00 0.00 66 1015.3
20260902021538 83 339 0.0 0.0 0.00 0.00 0.00 65 1015.6
20260902020034 84 309 0.0 0.0 0.00 0.00 0.00 66 1015.1
20260902020018 84 339 0.0 0.0 0.00 0.00 0.00 65 1015.5
20260902014540 84 309 0.0 0.0 0.00 0.00 0.00 65 1015.0
20260902014514 85 339 0.0 0.0 0.00 0.00 0.00 65 1015.2
20260902013033 85 309 0.0 0.0 0.00 0.00 0.00 63 1014.8
20260902013014 85 339 0.0 0.0 0.00 0.00 0.00 63 1015.1
20260902011533 85 309 0.0 0.0 0.00 0.00 0.00 64 1014.6
20260902011531 86 339 0.0 0.0 0.00 0.00 0.00 64 1015.0
20260902010032 86 309 0.0 0.0 0.00 0.00 0.00 63 1014.6
20260902010027 86 339 0.0 0.0 0.00 0.00 0.00 62 1014.9
20260902004531 87 309 0.0 0.0 0.00 0.00 0.00 60 1014.8
20260902004527 88 339 0.0 0.0 0.00 0.00 0.00 59 1015.0
20260902003030 89 309 0.0 0.0 0.00 0.00 0.00 57 1014.7
20260902003025 89 339 0.0 0.0 0.00 0.00 0.00 56 1015.0
20260902001533 91 309 0.0 0.0 0.00 0.00 0.00 53 1014.7
20260902001518 92 339 0.0 0.0 0.00 0.00 0.00 52 1015.0
20260902000056 92 309 0.0 0.0 0.00 0.00 0.00 50 1014.9
20260902000016 93 339 0.0 0.0 0.00 0.00 0.00 50 1015.1
20260901234630 93 309 0.0 0.0 0.00 0.00 0.00 50 1014.9
20260901234531 93 339 0.0 0.0 0.00 0.00 0.00 49 1015.2
20260901233139 93 311 0.0 0.0 0.00 0.00 0.00 49 1015.0
20260901233028 94 341 0.0 0.0 0.00 0.00 0.00 49 1015.2
20260901231618 94 309 0.0 0.0 0.00 0.00 0.00 48 1015.1
20260901231527 94 339 0.0 0.0 0.00 0.00 0.00 48 1015.3
20260901230034 94 339 0.0 1.0 0.00 0.00 0.00 47 1015.3
20260901230029 94 309 0.0 0.0 0.00 0.00 0.00 48 1014.9
20260901224629 94 308 0.0 1.0 0.00 0.00 0.00 47 1014.9
20260901224523 95 341 0.0 0.0 0.00 0.00 0.00 46 1015.2
20260901223133 94 311 0.0 0.0 0.00 0.00 0.00 45 1014.8
20260901223019 95 341 0.0 0.0 0.00 0.00 0.00 45 1015.1
20260901221533 95 343 0.0 0.0 0.00 0.00 0.00 45 1015.1
20260901221510 94 312 0.0 0.0 0.00 0.00 0.00 45 1014.8
20260901220053 95 74 0.0 2.0 0.00 0.00 0.00 45 1015.2
20260901220009 95 96 0.0 2.0 0.00 0.00 0.00 45 1014.9
20260901214529 95 57 0.0 2.0 0.00 0.00 0.00 45 1015.1
20260901214507 95 27 0.0 2.0 0.00 0.00 0.00 46 1014.8
20260901213057 95 71 0.0 2.0 0.00 0.00 0.00 48 1015.2
20260901213006 95 39 0.0 2.0 0.00 0.00 0.00 49 1015.0
20260901211524 95 119 0.0 7.0 0.00 0.00 0.00 45 1015.4
20260901211505 95 48 0.0 7.0 0.00 0.00 0.00 46 1015.1
20260901210019 95 341 0.0 1.0 0.00 0.00 0.00 47 1015.6
20260901210002 95 311 0.0 1.0 0.00 0.00 0.00 48 1015.3
20260901204602 94 311 0.0 2.0 0.00 0.00 0.00 46 1015.4
20260901204515 95 300 0.0 2.0 0.00 0.00 0.00 47 1015.7
20260901203118 94 62 0.0 2.0 0.00 0.00 0.00 46 1015.6
20260901203030 95 92 0.0 2.0 0.00 0.00 0.00 45 1015.9
20260901201556 95 93 0.0 1.0 0.00 0.00 0.00 43 1015.8
20260901201506 95 123 0.0 1.0 0.00 0.00 0.00 44 1016.2